When you browse on this site, cookies collect data to enhance your experience and personalize the content and advertising you see.
Visit our Privacy Policy to learn more. By continuing to use the site, you agree to this use of cookies and data.
  • In Germany
  • List of Countries
  • For 7 days
  • Water Temperature
  • Weather Map
  • Weather Widgets
  • user-avatar
    Login

    Hourly Weather Zaharovka

    Today, 16 October, Wednesday

    Time Temperature Precipitation Wind Pressure Humidity
    00:00 0°C° 0 mm 3 mps 724 mmHg 93%
    01:00 -1°C° 0 mm 3 mps 724 mmHg 92%
    02:00 -1°C° 0 mm 3 mps 724 mmHg 91%
    03:00 -2°C° 0 mm 4 mps 725 mmHg 90%
    04:00 -2°C° 0 mm 4 mps 725 mmHg 88%
    05:00 -2°C° 0.1 mm 4 mps 725 mmHg 91%
    06:00 -2°C° 0.1 mm 4 mps 726 mmHg 93%
    07:00 -2°C° 0.1 mm 4 mps 726 mmHg 95%
    08:00 -1°C° 0.1 mm 4 mps 727 mmHg 91%
    09:00 -1°C° 0.1 mm 4 mps 727 mmHg 87%
    10:00 -1°C° 0.1 mm 4 mps 728 mmHg 83%
    11:00 0°C° 0.1 mm 5 mps 728 mmHg 81%
    12:00 0°C° 0.1 mm 5 mps 728 mmHg 80%
    13:00 0°C° 0.1 mm 5 mps 729 mmHg 78%
    14:00 0°C° 0 mm 5 mps 729 mmHg 78%
    15:00 -1°C° 0 mm 5 mps 730 mmHg 79%
    16:00 -1°C° 0 mm 5 mps 731 mmHg 80%
    17:00 -1°C° 0.1 mm 5 mps 731 mmHg 81%
    18:00 -2°C° 0.1 mm 4 mps 732 mmHg 82%
    19:00 -3°C° 0.1 mm 4 mps 732 mmHg 84%
    20:00 -3°C° 0 mm 4 mps 732 mmHg 84%
    21:00 -3°C° 0 mm 4 mps 733 mmHg 85%
    22:00 -3°C° 0 mm 4 mps 733 mmHg 85%
    23:00 -3°C° 0 mm 4 mps 733 mmHg 84%

    Tomorrow, 17 October, Thursday

    Time Temperature Precipitation Wind Pressure Humidity
    00:00 -3°C° 0 mm 4 mps 733 mmHg 84%
    01:00 -3°C° 0 mm 4 mps 734 mmHg 83%
    02:00 -3°C° 0 mm 4 mps 734 mmHg 82%
    03:00 -3°C° 0 mm 4 mps 735 mmHg 82%
    04:00 -3°C° 0 mm 4 mps 735 mmHg 82%
    05:00 -3°C° 0 mm 4 mps 735 mmHg 82%
    06:00 -3°C° 0 mm 4 mps 735 mmHg 83%
    07:00 -4°C° 0 mm 4 mps 735 mmHg 83%
    08:00 -3°C° 0 mm 4 mps 735 mmHg 81%
    09:00 -3°C° 0 mm 4 mps 736 mmHg 78%
    10:00 -2°C° 0 mm 3 mps 736 mmHg 75%
    11:00 -1°C° 0 mm 3 mps 736 mmHg 74%
    12:00 -1°C° 0 mm 3 mps 736 mmHg 73%
    13:00 -1°C° 0 mm 3 mps 736 mmHg 72%
    14:00 -1°C° 0 mm 3 mps 735 mmHg 73%
    15:00 -1°C° 0 mm 3 mps 735 mmHg 74%
    16:00 -1°C° 0 mm 3 mps 735 mmHg 75%
    17:00 -1°C° 0.1 mm 2 mps 735 mmHg 81%
    18:00 -2°C° 0.1 mm 2 mps 734 mmHg 87%
    19:00 -2°C° 0.1 mm 2 mps 734 mmHg 94%
    20:00 -2°C° 0.4 mm 2 mps 734 mmHg 94%
    21:00 0°C° 0.4 mm 1 mps 733 mmHg 95%
    22:00 0°C° 0.4 mm 1 mps 733 mmHg 96%
    23:00 0°C° 0.5 mm 1 mps 732 mmHg 96%

    Day after tomorrow, 18 October, Friday

    Time Temperature Precipitation Wind Pressure Humidity
    00:00 0°C° 0.5 mm 1 mps 731 mmHg 97%
    01:00 -2°C° 0.5 mm 2 mps 730 mmHg 97%
    02:00 0°C° 0.4 mm 1 mps 730 mmHg 97%
    03:00 0°C° 0.4 mm 1 mps 730 mmHg 97%
    04:00 0°C° 0.4 mm 1 mps 729 mmHg 97%
    05:00 0°C° 0.3 mm 1 mps 729 mmHg 97%
    06:00 0°C° 0.3 mm 1 mps 729 mmHg 97%
    07:00 0°C° 0.3 mm 1 mps 728 mmHg 98%
    08:00 -2°C° 0.3 mm 2 mps 728 mmHg 96%
    09:00 -1°C° 0.3 mm 2 mps 729 mmHg 95%
    10:00 -1°C° 0.3 mm 3 mps 729 mmHg 93%
    11:00 -1°C° 0.3 mm 3 mps 729 mmHg 93%
    12:00 -2°C° 0.3 mm 4 mps 729 mmHg 92%
    13:00 -2°C° 0.3 mm 4 mps 730 mmHg 92%
    14:00 -2°C° 0.1 mm 4 mps 730 mmHg 90%
    15:00 -2°C° 0.1 mm 4 mps 731 mmHg 89%
    16:00 -2°C° 0.1 mm 4 mps 732 mmHg 87%
    17:00 -3°C° 0.1 mm 4 mps 732 mmHg 89%
    18:00 -4°C° 0.1 mm 4 mps 733 mmHg 90%
    19:00 -4°C° 0.1 mm 4 mps 734 mmHg 92%
    20:00 -5°C° 0.1 mm 4 mps 734 mmHg 90%
    21:00 -5°C° 0.1 mm 4 mps 735 mmHg 89%
    22:00 -5°C° 0.1 mm 4 mps 736 mmHg 87%
    23:00 -6°C° 0 mm 3 mps 736 mmHg 88%

    19 October, Saturday

    Time Temperature Precipitation Wind Pressure Humidity
    00:00 -6°C° 0 mm 3 mps 736 mmHg 89%
    01:00 -6°C° 0 mm 2 mps 737 mmHg 90%
    02:00 -7°C° 0 mm 2 mps 737 mmHg 92%
    03:00 -7°C° 0 mm 2 mps 738 mmHg 94%
    04:00 -8°C° 0 mm 2 mps 738 mmHg 97%
    05:00 -7°C° 0 mm 1 mps 739 mmHg 97%
    06:00 -7°C° 0 mm 1 mps 739 mmHg 97%
    07:00 -8°C° 0 mm 1 mps 739 mmHg 97%
    08:00 -6°C° 0 mm 1 mps 740 mmHg 90%
    09:00 -4°C° 0 mm 1 mps 740 mmHg 83%
    10:00 -2°C° 0 mm 1 mps 741 mmHg 76%
    11:00 -2°C° 0 mm 1 mps 741 mmHg 72%
    12:00 -1°C° 0 mm 1 mps 741 mmHg 68%
    13:00 0°C° 0 mm 1 mps 741 mmHg 63%
    14:00 0°C° 0 mm 1 mps 741 mmHg 66%
    15:00 -2°C° 0 mm 0 mps 741 mmHg 70%
    16:00 -2°C° 0 mm 0 mps 741 mmHg 73%
    17:00 -3°C° 0 mm 0 mps 741 mmHg 76%
    18:00 -3°C° 0 mm 1 mps 741 mmHg 79%
    19:00 -4°C° 0 mm 1 mps 741 mmHg 83%
    20:00 -4°C° 0 mm 1 mps 742 mmHg 84%
    21:00 -6°C° 0 mm 1 mps 742 mmHg 86%
    22:00 -6°C° 0 mm 1 mps 742 mmHg 87%
    23:00 -6°C° 0 mm 1 mps 742 mmHg 88%

    20 October, Sunday

    Time Temperature Precipitation Wind Pressure Humidity
    00:00 -6°C° 0 mm 1 mps 742 mmHg 88%
    01:00 -6°C° 0 mm 1 mps 742 mmHg 89%
    02:00 -6°C° 0 mm 1 mps 741 mmHg 89%
    03:00 -7°C° 0 mm 1 mps 741 mmHg 89%
    04:00 -7°C° 0 mm 1 mps 741 mmHg 89%
    05:00 -6°C° 0 mm 1 mps 741 mmHg 88%
    06:00 -7°C° 0 mm 2 mps 741 mmHg 86%
    07:00 -7°C° 0 mm 2 mps 741 mmHg 85%
    08:00 -6°C° 0 mm 2 mps 741 mmHg 81%
    09:00 -4°C° 0 mm 2 mps 741 mmHg 78%
    10:00 -4°C° 0 mm 3 mps 741 mmHg 74%
    11:00 -2°C° 0 mm 3 mps 740 mmHg 74%
    12:00 -2°C° 0 mm 4 mps 740 mmHg 75%
    13:00 -1°C° 0 mm 4 mps 740 mmHg 75%
    14:00 -1°C° 0 mm 4 mps 739 mmHg 75%
    15:00 -2°C° 0 mm 4 mps 739 mmHg 75%
    16:00 -2°C° 0 mm 5 mps 738 mmHg 75%
    17:00 -2°C° 0 mm 5 mps 738 mmHg 76%
    18:00 -4°C° 0 mm 5 mps 738 mmHg 77%
    19:00 -4°C° 0 mm 5 mps 737 mmHg 78%
    20:00 -4°C° 0 mm 6 mps 737 mmHg 80%
    21:00 -4°C° 0 mm 6 mps 736 mmHg 82%
    22:00 -3°C° 0 mm 6 mps 736 mmHg 84%
    23:00 -3°C° 0.2 mm 6 mps 736 mmHg 87%

    21 October, Monday

    Time Temperature Precipitation Wind Pressure Humidity
    00:00 -3°C° 0.2 mm 6 mps 736 mmHg 90%
    01:00 -3°C° 0.2 mm 6 mps 735 mmHg 93%
    02:00 -1°C° 0.2 mm 5 mps 735 mmHg 94%
    03:00 -1°C° 0.2 mm 5 mps 735 mmHg 94%
    04:00 -1°C° 0.2 mm 4 mps 735 mmHg 95%
    05:00 -1°C° 0.1 mm 4 mps 734 mmHg 95%
    06:00 0°C° 0.1 mm 4 mps 734 mmHg 95%
    07:00 +1°C° 0.1 mm 3 mps 734 mmHg 96%
    08:00 +1°C° 0.1 mm 3 mps 734 mmHg 96%
    09:00 +1°C° 0.1 mm 3 mps 734 mmHg 96%
    10:00 +2°C° 0.1 mm 2 mps 734 mmHg 96%
    11:00 +2°C° 0.2 mm 2 mps 734 mmHg 96%
    12:00 +2°C° 0.2 mm 2 mps 735 mmHg 97%
    13:00 +3°C° 0.2 mm 1 mps 735 mmHg 98%
    14:00 +3°C° 0 mm 1 mps 735 mmHg 98%
    15:00 +3°C° 0 mm 1 mps 735 mmHg 98%
    16:00 +3°C° 0 mm 1 mps 736 mmHg 98%
    17:00 +3°C° 0 mm 1 mps 736 mmHg 98%
    18:00 +3°C° 0 mm 1 mps 736 mmHg 98%
    19:00 +2°C° 0 mm 0 mps 737 mmHg 98%
    20:00 +1°C° 0 mm 0 mps 737 mmHg 98%
    21:00 +1°C° 0 mm 0 mps 737 mmHg 98%
    22:00 +1°C° 0 mm 0 mps 737 mmHg 98%
    23:00 +1°C° 0 mm 0 mps 736 mmHg 98%
    Show more